EN

Hourly Weather Ovsyanaya Niva

Today, 5 March, Friday

Time Temperature Precipitation Wind Pressure Humidity
00:00 -7°C° 0 mm 3 mps 739 mmHg 89%
01:00 -7°C° 0 mm 3 mps 739 mmHg 90%
02:00 -7°C° 0 mm 3 mps 740 mmHg 91%
03:00 -8°C° 0 mm 3 mps 740 mmHg 91%
04:00 -7°C° 0 mm 2 mps 740 mmHg 90%
05:00 -7°C° 0 mm 2 mps 740 mmHg 90%
06:00 -7°C° 0 mm 2 mps 741 mmHg 88%
07:00 -6°C° 0 mm 2 mps 741 mmHg 86%
08:00 -6°C° 0 mm 2 mps 741 mmHg 84%
09:00 -6°C° 0.1 mm 3 mps 741 mmHg 81%
10:00 -5°C° 0.1 mm 3 mps 741 mmHg 77%
11:00 -4°C° 0.1 mm 4 mps 742 mmHg 73%
12:00 -4°C° 0.2 mm 4 mps 742 mmHg 70%
13:00 -4°C° 0.2 mm 5 mps 742 mmHg 67%
14:00 -4°C° 0.2 mm 5 mps 742 mmHg 64%
15:00 -5°C° 0.1 mm 5 mps 743 mmHg 69%
16:00 -6°C° 0.1 mm 5 mps 743 mmHg 74%
17:00 -6°C° 0.1 mm 5 mps 743 mmHg 78%
18:00 -7°C° 0.1 mm 5 mps 744 mmHg 79%
19:00 -7°C° 0.1 mm 4 mps 744 mmHg 80%
20:00 -7°C° 0.1 mm 3 mps 745 mmHg 80%
21:00 -7°C° 0 mm 3 mps 745 mmHg 81%
22:00 -7°C° 0 mm 3 mps 746 mmHg 81%
23:00 -8°C° 0 mm 3 mps 746 mmHg 82%

Tomorrow, 6 March, Saturday

Time Temperature Precipitation Wind Pressure Humidity
00:00 -8°C° 0 mm 3 mps 747 mmHg 83%
01:00 -7°C° 0 mm 2 mps 747 mmHg 85%
02:00 -8°C° 0 mm 2 mps 747 mmHg 86%
03:00 -8°C° 0 mm 2 mps 747 mmHg 86%
04:00 -8°C° 0 mm 2 mps 747 mmHg 86%
05:00 -9°C° 0 mm 2 mps 747 mmHg 86%
06:00 -8°C° 0 mm 2 mps 748 mmHg 84%
07:00 -8°C° 0 mm 2 mps 748 mmHg 82%
08:00 -8°C° 0 mm 2 mps 748 mmHg 80%
09:00 -8°C° 0 mm 3 mps 748 mmHg 76%
10:00 -7°C° 0 mm 3 mps 748 mmHg 72%
11:00 -6°C° 0 mm 3 mps 748 mmHg 67%
12:00 -7°C° 0 mm 4 mps 748 mmHg 65%
13:00 -5°C° 0 mm 4 mps 748 mmHg 63%
14:00 -5°C° 0 mm 4 mps 748 mmHg 60%
15:00 -5°C° 0 mm 4 mps 747 mmHg 62%
16:00 -5°C° 0 mm 3 mps 747 mmHg 64%
17:00 -6°C° 0 mm 3 mps 747 mmHg 65%
18:00 -6°C° 0 mm 3 mps 746 mmHg 65%
19:00 -7°C° 0 mm 4 mps 746 mmHg 64%
20:00 -7°C° 0 mm 5 mps 745 mmHg 63%
21:00 -7°C° 0 mm 5 mps 744 mmHg 64%
22:00 -6°C° 0 mm 6 mps 744 mmHg 65%
23:00 -6°C° 0 mm 6 mps 743 mmHg 66%

Day after tomorrow, 7 March, Sunday

Time Temperature Precipitation Wind Pressure Humidity
00:00 -7°C° 0 mm 7 mps 742 mmHg 68%
01:00 -7°C° 0 mm 7 mps 741 mmHg 69%
02:00 -7°C° 0 mm 7 mps 739 mmHg 70%
03:00 -7°C° 0.2 mm 8 mps 738 mmHg 77%
04:00 -7°C° 0.2 mm 8 mps 736 mmHg 84%
05:00 -8°C° 0.2 mm 9 mps 735 mmHg 91%
06:00 -6°C° 0.6 mm 9 mps 734 mmHg 92%
07:00 -6°C° 0.6 mm 9 mps 734 mmHg 92%
08:00 -5°C° 0.6 mm 10 mps 733 mmHg 93%
09:00 -6°C° 0.5 mm 9 mps 734 mmHg 84%
10:00 -6°C° 0.5 mm 9 mps 734 mmHg 76%
11:00 -7°C° 0.5 mm 8 mps 734 mmHg 67%
12:00 -7°C° 0 mm 7 mps 735 mmHg 61%
13:00 -6°C° 0 mm 7 mps 735 mmHg 55%
14:00 -6°C° 0 mm 7 mps 735 mmHg 49%
15:00 -6°C° 0 mm 6 mps 735 mmHg 56%
16:00 -6°C° 0 mm 6 mps 734 mmHg 63%
17:00 -6°C° 0 mm 6 mps 734 mmHg 70%
18:00 -8°C° 0 mm 6 mps 734 mmHg 71%
19:00 -8°C° 0 mm 6 mps 733 mmHg 71%
20:00 -8°C° 0 mm 6 mps 733 mmHg 72%
21:00 -9°C° 0.1 mm 6 mps 733 mmHg 76%
22:00 -9°C° 0.1 mm 7 mps 733 mmHg 80%
23:00 -9°C° 0.1 mm 7 mps 733 mmHg 84%

8 March, Monday

Time Temperature Precipitation Wind Pressure Humidity
00:00 -11°C° 0.2 mm 7 mps 734 mmHg 80%
01:00 -11°C° 0.2 mm 6 mps 734 mmHg 75%
02:00 -12°C° 0.2 mm 6 mps 735 mmHg 71%
03:00 -12°C° 0 mm 5 mps 735 mmHg 74%
04:00 -13°C° 0 mm 5 mps 736 mmHg 77%
05:00 -13°C° 0 mm 5 mps 737 mmHg 80%
06:00 -13°C° 0 mm 5 mps 737 mmHg 81%
07:00 -13°C° 0 mm 5 mps 738 mmHg 81%
08:00 -14°C° 0 mm 5 mps 739 mmHg 82%
09:00 -13°C° 0 mm 5 mps 739 mmHg 78%
10:00 -11°C° 0 mm 4 mps 740 mmHg 74%
11:00 -10°C° 0 mm 4 mps 740 mmHg 70%
12:00 -9°C° 0 mm 4 mps 741 mmHg 68%
13:00 -8°C° 0 mm 5 mps 741 mmHg 65%
14:00 -8°C° 0 mm 5 mps 742 mmHg 62%
15:00 -8°C° 0 mm 4 mps 742 mmHg 66%
16:00 -9°C° 0 mm 4 mps 742 mmHg 70%
17:00 -9°C° 0 mm 4 mps 742 mmHg 74%
18:00 -9°C° 0 mm 3 mps 743 mmHg 78%
19:00 -10°C° 0 mm 3 mps 743 mmHg 81%
20:00 -12°C° 0 mm 3 mps 744 mmHg 85%
21:00 -12°C° 0 mm 3 mps 744 mmHg 86%
22:00 -13°C° 0 mm 3 mps 745 mmHg 87%
23:00 -13°C° 0 mm 3 mps 745 mmHg 88%

9 March, Tuesday

Time Temperature Precipitation Wind Pressure Humidity
00:00 -14°C° 0 mm 3 mps 745 mmHg 87%
01:00 -14°C° 0 mm 3 mps 746 mmHg 87%
02:00 -15°C° 0 mm 3 mps 746 mmHg 86%
03:00 -15°C° 0 mm 3 mps 747 mmHg 87%
04:00 -15°C° 0 mm 3 mps 747 mmHg 87%
05:00 -15°C° 0 mm 3 mps 747 mmHg 88%
06:00 -17°C° 0 mm 4 mps 748 mmHg 87%
07:00 -17°C° 0 mm 4 mps 749 mmHg 86%
08:00 -17°C° 0 mm 4 mps 749 mmHg 85%
09:00 -16°C° 0 mm 4 mps 750 mmHg 82%
10:00 -16°C° 0 mm 4 mps 750 mmHg 80%
11:00 -15°C° 0 mm 4 mps 750 mmHg 77%
12:00 -14°C° 0 mm 4 mps 751 mmHg 74%
13:00 -12°C° 0 mm 4 mps 751 mmHg 71%
14:00 -12°C° 0 mm 4 mps 752 mmHg 69%
15:00 -12°C° 0 mm 3 mps 752 mmHg 71%
16:00 -12°C° 0 mm 3 mps 752 mmHg 73%
17:00 -10°C° 0 mm 2 mps 752 mmHg 75%
18:00 -12°C° 0 mm 2 mps 752 mmHg 78%
19:00 -13°C° 0 mm 2 mps 753 mmHg 82%
20:00 -11°C° 0 mm 1 mps 753 mmHg 86%
21:00 -11°C° 0 mm 1 mps 754 mmHg 86%
22:00 -12°C° 0 mm 1 mps 754 mmHg 86%
23:00 -12°C° 0 mm 1 mps 754 mmHg 87%

10 March, Wednesday

Time Temperature Precipitation Wind Pressure Humidity
00:00 -14°C° 0 mm 2 mps 754 mmHg 87%
01:00 -14°C° 0 mm 2 mps 754 mmHg 87%
02:00 -14°C° 0 mm 2 mps 754 mmHg 87%
03:00 -14°C° 0 mm 3 mps 754 mmHg 84%
04:00 -14°C° 0 mm 3 mps 753 mmHg 81%
05:00 -14°C° 0 mm 4 mps 753 mmHg 77%
06:00 -14°C° 0 mm 4 mps 753 mmHg 75%
07:00 -13°C° 0 mm 5 mps 753 mmHg 72%
08:00 -13°C° 0 mm 5 mps 753 mmHg 69%
09:00 -12°C° 0 mm 6 mps 752 mmHg 66%
10:00 -11°C° 0 mm 6 mps 752 mmHg 63%
11:00 -10°C° 0 mm 6 mps 752 mmHg 60%
12:00 -9°C° 0 mm 6 mps 752 mmHg 58%
13:00 -8°C° 0 mm 6 mps 751 mmHg 57%
14:00 -8°C° 0 mm 6 mps 751 mmHg 55%
15:00 -8°C° 0 mm 6 mps 751 mmHg 56%
16:00 -7°C° 0 mm 5 mps 750 mmHg 58%
17:00 -7°C° 0 mm 5 mps 750 mmHg 60%
18:00 -8°C° 0 mm 5 mps 750 mmHg 62%
19:00 -8°C° 0 mm 4 mps 750 mmHg 64%
20:00 -9°C° 0 mm 4 mps 750 mmHg 66%
21:00 -9°C° 0 mm 4 mps 749 mmHg 67%
22:00 -9°C° 0 mm 4 mps 749 mmHg 69%
23:00 -9°C° 0 mm 4 mps 749 mmHg 71%
Show more

We Need Your Consent

Meteoprog and our Service Providers may store and access personal data such as cookies, device identifiers or other similar technologies on your device and process such data to personalise content and ads, as well as provide social media features and to analyse the traffic.

  • Store and/or access information on your device

    Cookies, device identifiers or other information can be stored or accessed on your device for the purposes indicated above.

  • Personalised ads and content, ad and content measurement, audience insights, and products development

    Ads and content can be personalised based on a profile. More data can be added to better personalise ads and content. Ad and content performance can be measured. Insights about the audience who saw the ads and content can be derived. Such data can be used to develop or improve user’s experience, systems and software.

By clicking ‘I Agree’ you will allow the use of indicated cookies, device identifiers, web beacons or other similar technologies. Your settings can be changed in the browser on your device.

For certain purposes, legitimate interests may be relied on, rather than consent. You can read more about this in our Privacy and Cookie Policy.